Regional Weather Roundup
Issued by NWS

Home | Current Version | Previous Version | Graphics & Text | Print | Product List | Glossary On
Versions: 1 2 3 4 5 6 7 8 9 10 11 12 13 14 15 16 17 18 19 20 21 22 23 24 25 26 27 28 29 30 31 32 33 34 35 36 37 38 39 40 41 42 43 44 45 46 47 48 49 50
000
ASUS43 KIND 281009
RWRIN

WEATHER ROUNDUP FOR INDIANA
NATIONAL WEATHER SERVICE INDIANAPOLIS IN
600 AM EDT WED JUN 28 2017

NOTE: "FAIR" INDICATES FEW OR NO CLOUDS BELOW 12,000 FEET WITH NO
SIGNIFICANT WEATHER AND/OR OBSTRUCTIONS TO VISIBILITY.

* - STATION DOES NOT REPORT WEATHER SUCH AS PRECIPITATION OR FOG.

+ - STATION NOT QUALITY CONTROLLED BY THE NATIONAL WEATHER SERVICE.
    USE DATA WITH CAUTION...ESPECIALLY DEWPOINT AND RELATIVE
    HUMIDITY OBSERVATIONS.

INZ001>003-010>013-019-020-281100-
NORTHWEST INDIANA

CITY           SKY/WX    TMP DP  RH WIND       PRES   REMARKS
GARY /AIRPORT/ PTCLDY    61  46  59 S8        30.03S
KNOX *+        CLEAR     55  37  50 S7        30.06S
LA PORTE +     CLEAR     51  47  86 CALM      30.06F
MICHIGAN CITY+ CLEAR     59  46  63 S6        30.05S
MONTICELLO +   CLEAR     58  48  68 SE6       30.06R
RENSSELAER +   CLEAR     57  46  67 S6        30.06S
VALPARAISO     CLEAR     57  49  74 S5        30.06R

$$

LMZ046-743>745-281100-
SOUTHERN LAKE MICHIGAN

STATION/POSITION TIME  TEMP    WIND        PRES    WAVE
                       AIR SEA DIR/SP/G            HT
                 (UTC) (F)     (DEG/KT/KT) (MB)    (FT)
BURNS HARBOR     0940   62     180/  7/ 15 1017.3S
MICHIGAN CITY    0940   61     160/ 11/ 14   N/A
5NW MICH CITY    1000   62 66  180/ 14/ 16   N/A     1

$$

INZ004-005-014>016-021>024-281100-
NORTH CENTRAL INDIANA

CITY           SKY/WX    TMP DP  RH WIND       PRES   REMARKS
GOSHEN         CLEAR     54  46  74 S3        30.08R
LOGANSPORT +   CLEAR     50  46  87 SE6       30.09R
PERU/GRISSOM   CLEAR     54  50  85 S7        30.08R
ROCHESTER +    CLEAR     61  50  67 SE5       30.08F
SOUTH BEND     CLEAR     54  47  77 S5        30.07R
WARSAW +       CLEAR     55  46  71 S3        30.09R

$$

INZ006>009-017-018-025>027-281100-
NORTHEAST INDIANA

CITY           SKY/WX    TMP DP  RH WIND       PRES   REMARKS
ANGOLA *+      CLEAR     50  39  66 CALM      30.08S
AUBURN +       CLEAR     50  46  87 CALM      30.11R
FORT WAYNE     PTCLDY    54  47  77 SW5       30.12R
HUNTINGTON +   CLEAR     52  48  85 CALM      30.10R
KENDALLVILLE + CLEAR     55  49  79 SW5       30.10R

$$

INZ028-029-035-036-043>045-051>053-281100-
WEST CENTRAL INDIANA

CITY           SKY/WX    TMP DP  RH WIND       PRES   REMARKS
CRAWFORDSVL +  CLEAR     52  52  99 SE7       30.08R
GREENCASTLE +  CLEAR     52  48  87 CALM      30.09S
LAFAYETTE      PTCLDY    54  49  83 CALM      30.07S
TERRE HAUTE    CLEAR     53  48  83 CALM      30.08S

$$

INZ030>032-037>040-046>048-054>057-064-065-281100-
CENTRAL INDIANA

CITY           SKY/WX    TMP DP  RH WIND       PRES   REMARKS
CP ATTERBURY + CLEAR     46  45  93 CALM      30.11R
FRANKFORT +    CLEAR     54  51  90 SE3       30.10R
GREENWOOD *+   PTCLDY    56  50  79 S3        30.10R
INDIANAPOLIS   PTCLDY    56  49  77 SE5       30.10R
-EAGLE CREEK   CLEAR     55  50  83 CALM      30.10R
KOKOMO +       CLEAR     54  50  86 SE3       30.10R
MT COMFORT *+  CLEAR     54  50  87 S5        30.11R
SHELBYVILLE    CLEAR     52  47  83 CALM      30.10R
ZIONSVILLE +   CLEAR     54  50  86 CALM      30.11S

$$

INZ033-034-041-042-049-050-058-059-281100-
EAST CENTRAL INDIANA

CITY           SKY/WX    TMP DP  RH WIND       PRES   REMARKS
MUNCIE         CLEAR     57  48  72 S5        30.12R
RICHMOND +     CLEAR     52  46  82 SE5       30.13S FOG

$$

INZ060-061-067>069-081>083-085>088-281100-
SOUTHWEST INDIANA

CITY           SKY/WX    TMP DP  RH WIND       PRES   REMARKS
EVANSVILLE     CLEAR     57  54  89 CALM      30.09R
HUNTINGBURG *+ CLEAR     57  51  80 SE5       30.10R
WASHINGTON +   CLEAR     53  51  93 S3        30.08S

$$

INZ062-063-066-070>080-084-089>092-281100-
SOUTH CENTRAL AND SOUTHEAST INDIANA

CITY           SKY/WX    TMP DP  RH WIND       PRES   REMARKS
BEDFORD +      CLEAR     55  48  76 CALM      30.10R
BLOOMINGTON      N/A     52  48  86 CALM      30.10R
MADISON *+     CLEAR     54  52  94 CALM      30.13R
NORTH VERNON + CLEAR     54  48  82 CALM      30.12S
SEYMOUR +      CLEAR     55  55 100 CALM      30.12R

$$





USA.gov is the U.S. government's official web portal to all federal, state and local government web resources and services.